Simultaneous Nadir Overpasses (SNOs) Predictions

Prediction of SNOs between METOP-B and TERRA Satellite Orbit:

Table of predicted SNOs for the next 14.0 days since TLE Epoch: 2/9/2019
Index Date (METOP-B) Time (METOP-B) Lat,Lon (METOP-B) SZA (METOP-B ) Date (TERRA) Time (TERRA) Lat,Lon (TERRA) SZA (TERRA ) Distance(km) Time Diff (sec)
1 02/10/2019 02:32:41 -81.28, 8.58 81.98 02/10/2019 02:33:40 -81.28, 8.42 81.98 2.89 59
2 02/10/2019 03:23:21 81.29, 176.09 98.03 02/10/2019 03:23:06 81.29, 176.21 98.03 1.95 15
3 02/12/2019 22:07:06 -81.28, 74.72 82.94 02/12/2019 22:07:56 -81.28, 74.83 82.91 1.94 50
4 02/12/2019 22:57:45 81.29,-117.40 97.12 02/12/2019 22:57:22 81.28,-117.41 97.11 0.56 23
5 02/15/2019 17:41:29 -81.28, 141.22 83.87 02/15/2019 17:42:11 -81.28, 141.31 83.85 1.41 42
6 02/15/2019 18:32:08 81.29, -50.90 96.18 02/15/2019 18:31:37 81.28, -50.97 96.16 1.30 31
7 02/18/2019 13:15:53 -81.28,-152.28 84.83 02/18/2019 13:16:27 -81.29,-152.15 84.80 2.22 34
8 02/18/2019 14:06:32 81.29, 15.59 95.22 02/18/2019 14:05:53 81.29, 15.55 95.20 0.80 39
9 02/21/2019 08:50:17 -81.28, -85.80 85.82 02/21/2019 08:50:44 -81.27, -85.92 85.83 2.27 27




NCC Satellite Simultaneous Nadir Overpasses (SNOs) Prediction Service
